When you browse on this site, cookies collect data to enhance your experience and personalize the content and advertising you see.
Visit our Privacy Policy to learn more. By continuing to use the site, you agree to this use of cookies and data.
  • en Suisse
  • Liste des pays
  • À 7 jours
  • Température de l'eau
  • Carte satellitaire
  • Carte météo
  • Widgets météo
  • user-avatar
    Se connecter

    Météo par heure à Sydney

    Ce jour, 22 Mai, Mercredi

    Heure Température Précipitation Vent Pression Humidité
    00:00 +19°C° 0 mm 2 m/s 768 mmHg 66%
    01:00 +18°C° 0 mm 2 m/s 768 mmHg 67%
    02:00 +18°C° 0 mm 2 m/s 768 mmHg 68%
    03:00 +18°C° 0 mm 2 m/s 768 mmHg 69%
    04:00 +17°C° 0 mm 2 m/s 768 mmHg 70%
    05:00 +17°C° 0 mm 2 m/s 768 mmHg 70%
    06:00 +17°C° 0 mm 2 m/s 769 mmHg 71%
    07:00 +16°C° 0 mm 1 m/s 769 mmHg 72%
    08:00 +18°C° 0 mm 2 m/s 769 mmHg 65%
    09:00 +20°C° 0 mm 2 m/s 769 mmHg 58%
    10:00 +23°C° 0 mm 2 m/s 769 mmHg 52%
    11:00 +24°C° 0 mm 2 m/s 769 mmHg 51%
    12:00 +25°C° 0 mm 3 m/s 769 mmHg 50%
    13:00 +25°C° 0 mm 3 m/s 768 mmHg 49%
    14:00 +24°C° 0 mm 3 m/s 768 mmHg 55%
    15:00 +23°C° 0 mm 4 m/s 768 mmHg 61%
    16:00 +22°C° 0 mm 4 m/s 768 mmHg 66%
    17:00 +21°C° 0 mm 4 m/s 769 mmHg 71%
    18:00 +20°C° 0 mm 4 m/s 769 mmHg 75%
    19:00 +20°C° 0 mm 3 m/s 769 mmHg 79%
    20:00 +19°C° 0.2 mm 3 m/s 770 mmHg 82%
    21:00 +19°C° 0.2 mm 3 m/s 770 mmHg 84%
    22:00 +18°C° 0.2 mm 3 m/s 770 mmHg 87%
    23:00 +18°C° 0.1 mm 3 m/s 770 mmHg 87%

    Demain, 23 Mai, Jeudi

    Heure Température Précipitation Vent Pression Humidité
    00:00 +18°C° 0.1 mm 3 m/s 770 mmHg 88%
    01:00 +18°C° 0.1 mm 3 m/s 770 mmHg 88%
    02:00 +18°C° 0 mm 3 m/s 770 mmHg 88%
    03:00 +18°C° 0 mm 3 m/s 769 mmHg 87%
    04:00 +17°C° 0 mm 3 m/s 769 mmHg 87%
    05:00 +17°C° 0 mm 3 m/s 770 mmHg 87%
    06:00 +17°C° 0 mm 2 m/s 770 mmHg 87%
    07:00 +17°C° 0 mm 2 m/s 770 mmHg 88%
    08:00 +18°C° 0 mm 2 m/s 770 mmHg 81%
    09:00 +20°C° 0 mm 2 m/s 770 mmHg 74%
    10:00 +21°C° 0 mm 2 m/s 770 mmHg 67%
    11:00 +23°C° 0 mm 2 m/s 770 mmHg 63%
    12:00 +24°C° 0 mm 2 m/s 769 mmHg 59%
    13:00 +25°C° 0 mm 2 m/s 768 mmHg 54%
    14:00 +24°C° 0 mm 2 m/s 768 mmHg 56%
    15:00 +24°C° 0 mm 2 m/s 768 mmHg 58%
    16:00 +23°C° 0 mm 2 m/s 767 mmHg 60%
    17:00 +21°C° 0 mm 2 m/s 768 mmHg 66%
    18:00 +20°C° 0 mm 2 m/s 768 mmHg 72%
    19:00 +19°C° 0 mm 2 m/s 768 mmHg 77%
    20:00 +18°C° 0 mm 2 m/s 768 mmHg 80%
    21:00 +19°C° 0 mm 1 m/s 768 mmHg 83%
    22:00 +19°C° 0 mm 1 m/s 768 mmHg 86%
    23:00 +18°C° 0 mm 1 m/s 768 mmHg 87%

    Après-demain, 24 Mai, Vendredi

    Heure Température Précipitation Vent Pression Humidité
    00:00 +18°C° 0 mm 1 m/s 768 mmHg 89%
    01:00 +16°C° 0 mm 2 m/s 767 mmHg 91%
    02:00 +16°C° 0 mm 2 m/s 767 mmHg 91%
    03:00 +16°C° 0 mm 2 m/s 767 mmHg 91%
    04:00 +15°C° 0 mm 2 m/s 766 mmHg 91%
    05:00 +15°C° 0 mm 2 m/s 767 mmHg 87%
    06:00 +14°C° 0 mm 2 m/s 767 mmHg 84%
    07:00 +14°C° 0 mm 2 m/s 767 mmHg 80%
    08:00 +16°C° 0 mm 2 m/s 767 mmHg 68%
    09:00 +18°C° 0 mm 2 m/s 767 mmHg 56%
    10:00 +20°C° 0 mm 2 m/s 767 mmHg 44%
    11:00 +23°C° 0 mm 2 m/s 766 mmHg 39%
    12:00 +24°C° 0 mm 2 m/s 765 mmHg 34%
    13:00 +26°C° 0 mm 1 m/s 764 mmHg 28%
    14:00 +26°C° 0 mm 2 m/s 764 mmHg 31%
    15:00 +25°C° 0 mm 2 m/s 764 mmHg 34%
    16:00 +25°C° 0 mm 3 m/s 763 mmHg 37%
    17:00 +22°C° 0 mm 3 m/s 764 mmHg 41%
    18:00 +21°C° 0 mm 3 m/s 764 mmHg 46%
    19:00 +20°C° 0 mm 3 m/s 764 mmHg 50%
    20:00 +20°C° 0 mm 3 m/s 765 mmHg 49%
    21:00 +19°C° 0 mm 3 m/s 765 mmHg 47%
    22:00 +19°C° 0 mm 3 m/s 765 mmHg 46%
    23:00 +18°C° 0 mm 3 m/s 764 mmHg 47%

    25 Mai, Samedi

    Heure Température Précipitation Vent Pression Humidité
    00:00 +18°C° 0 mm 2 m/s 764 mmHg 49%
    01:00 +17°C° 0 mm 2 m/s 764 mmHg 50%
    02:00 +17°C° 0 mm 2 m/s 764 mmHg 52%
    03:00 +17°C° 0 mm 2 m/s 763 mmHg 53%
    04:00 +17°C° 0 mm 2 m/s 763 mmHg 55%
    05:00 +17°C° 0 mm 2 m/s 763 mmHg 55%
    06:00 +17°C° 0 mm 2 m/s 763 mmHg 55%
    07:00 +17°C° 0 mm 2 m/s 764 mmHg 55%
    08:00 +18°C° 0 mm 2 m/s 764 mmHg 53%
    09:00 +19°C° 0 mm 2 m/s 764 mmHg 51%
    10:00 +20°C° 0 mm 2 m/s 764 mmHg 49%
    11:00 +21°C° 0 mm 2 m/s 763 mmHg 46%
    12:00 +22°C° 0 mm 3 m/s 762 mmHg 44%
    13:00 +24°C° 0 mm 3 m/s 762 mmHg 41%
    14:00 +24°C° 0 mm 3 m/s 761 mmHg 41%
    15:00 +25°C° 0 mm 3 m/s 761 mmHg 41%
    16:00 +25°C° 0 mm 3 m/s 760 mmHg 41%
    17:00 +22°C° 0 mm 3 m/s 761 mmHg 44%
    18:00 +21°C° 0 mm 3 m/s 761 mmHg 48%
    19:00 +20°C° 0 mm 4 m/s 761 mmHg 51%
    20:00 +19°C° 0 mm 4 m/s 761 mmHg 50%
    21:00 +19°C° 0 mm 4 m/s 761 mmHg 49%
    22:00 +18°C° 0 mm 4 m/s 761 mmHg 48%
    23:00 +18°C° 0 mm 4 m/s 761 mmHg 48%

    26 Mai, Dimanche

    Heure Température Précipitation Vent Pression Humidité
    00:00 +18°C° 0 mm 4 m/s 760 mmHg 48%
    01:00 +17°C° 0 mm 4 m/s 760 mmHg 48%
    02:00 +17°C° 0 mm 4 m/s 760 mmHg 48%
    03:00 +17°C° 0 mm 4 m/s 760 mmHg 48%
    04:00 +16°C° 0 mm 5 m/s 759 mmHg 48%
    05:00 +16°C° 0 mm 5 m/s 759 mmHg 48%
    06:00 +16°C° 0 mm 5 m/s 760 mmHg 48%
    07:00 +16°C° 0 mm 5 m/s 760 mmHg 47%
    08:00 +19°C° 0 mm 5 m/s 759 mmHg 42%
    09:00 +21°C° 0 mm 5 m/s 759 mmHg 38%
    10:00 +24°C° 0 mm 6 m/s 759 mmHg 33%
    11:00 +24°C° 0 mm 6 m/s 758 mmHg 32%
    12:00 +26°C° 0 mm 6 m/s 757 mmHg 30%
    13:00 +27°C° 0 mm 7 m/s 757 mmHg 28%
    14:00 +27°C° 0 mm 6 m/s 756 mmHg 30%
    15:00 +26°C° 0 mm 6 m/s 756 mmHg 32%
    16:00 +24°C° 0 mm 6 m/s 756 mmHg 34%
    17:00 +23°C° 0 mm 5 m/s 757 mmHg 37%
    18:00 +21°C° 0 mm 5 m/s 757 mmHg 41%
    19:00 +20°C° 0 mm 5 m/s 757 mmHg 44%
    20:00 +19°C° 0 mm 5 m/s 758 mmHg 45%
    21:00 +17°C° 0 mm 5 m/s 758 mmHg 45%
    22:00 +16°C° 0 mm 5 m/s 758 mmHg 46%
    23:00 +16°C° 0 mm 5 m/s 759 mmHg 47%

    27 Mai, Lundi

    Heure Température Précipitation Vent Pression Humidité
    00:00 +15°C° 0 mm 5 m/s 759 mmHg 48%
    01:00 +14°C° 0 mm 5 m/s 759 mmHg 48%
    02:00 +14°C° 0 mm 6 m/s 759 mmHg 46%
    03:00 +13°C° 0 mm 6 m/s 760 mmHg 44%
    04:00 +11°C° 0 mm 6 m/s 760 mmHg 43%
    05:00 +11°C° 0 mm 6 m/s 761 mmHg 43%
    06:00 +10°C° 0 mm 6 m/s 761 mmHg 44%
    07:00 +10°C° 0 mm 5 m/s 762 mmHg 45%
    08:00 +12°C° 0 mm 5 m/s 762 mmHg 42%
    09:00 +13°C° 0 mm 5 m/s 762 mmHg 40%
    10:00 +14°C° 0 mm 5 m/s 762 mmHg 38%
    11:00 +15°C° 0 mm 4 m/s 762 mmHg 35%
    12:00 +18°C° 0 mm 4 m/s 761 mmHg 31%
    13:00 +19°C° 0 mm 3 m/s 760 mmHg 28%
    14:00 +19°C° 0 mm 3 m/s 760 mmHg 28%
    15:00 +19°C° 0 mm 2 m/s 760 mmHg 28%
    16:00 +19°C° 0 mm 2 m/s 760 mmHg 28%
    17:00 +18°C° 0 mm 2 m/s 760 mmHg 31%
    18:00 +16°C° 0 mm 2 m/s 760 mmHg 35%
    19:00 +14°C° 0 mm 3 m/s 761 mmHg 38%
    20:00 +13°C° 0 mm 3 m/s 761 mmHg 40%
    21:00 +13°C° 0 mm 4 m/s 761 mmHg 41%
    22:00 +12°C° 0 mm 4 m/s 761 mmHg 43%
    23:00 +11°C° 0 mm 4 m/s 760 mmHg 44%
    Voir plus